Zurück zum Katalog

STARLINK-31826

AktivKommunikationVLEO
NORAD 59768·PAYLOAD·🇺🇸 United States

Gestartet May 14, 2024 von Vandenberg Space Force Base

Loading…

Nächste Überflüge (nächste 24 Stunden)

TLE

AktuellSource: CelesTrak SupGP

Epoche: Sep 14, 2026, 22:18 UTC

1 59768C 24091R   26257.92965278  .00047873  00000+0  43512-3 0  2574
2 59768  53.1436 205.8180 0010531  61.9940 345.0501 15.67212675    13

Verfolge STARLINK-31826 in Echtzeit mit AllMySat

Download on the App Store